^^
Station Historical Data
Daily Summary for March 9, 2017 Units:  English    Metric   Both
« Previous Day
Next Day »
Daily Weekly Monthly Yearly Custom
  High: Low: Average:
Temperature: 56.4 °F 44.4 °F 51.5 °F
Dew Point: 26.6 °F 16.1 °F 22.5 °F
Humidity: 46% 23% 32%
Wind Speed: 10.0mph 0.0mph 4.4mph
Wind Gust: 33.0mph - -
Wind- - SW
Pressure: 30.02 in 29.90 in -
Precipitation: 0.00 in    
Historical Graphs
 
 
Tabular Data for March 9, 2017
Time Temperature Dew Point Pressure Wind Wind Speed Wind Gust Humidity Rainfall Rate (Hourly) Conditions
00:00 54.5 °F 22.9 °F 29.90 in WSW 7.0 mph 33.0 mph 29% 0.00 in RA
00:15 54.6 °F 22.9 °F 29.90 in WSW 8.0 mph 20.0 mph 29% 0.00 in CLR
00:30 54.2 °F 22.6 °F 29.91 in SW 8.0 mph 23.0 mph 29% 0.00 in CLR
00:45 54.0 °F 22.4 °F 29.91 in SW 7.0 mph 18.0 mph 29% 0.00 in CLR
01:00 53.3 °F 23.4 °F 29.92 in SW 3.0 mph 15.0 mph 31% 0.00 in CLR
02:15 52.7 °F 23.7 °F 29.92 in WSW 7.0 mph 22.0 mph 32% 0.00 in CLR
02:30 52.4 °F 23.3 °F 29.92 in SW 3.0 mph 21.0 mph 32% 0.00 in CLR
02:45 51.8 °F 23.6 °F 29.92 in SW 7.0 mph 15.0 mph 33% 0.00 in CLR
03:00 51.6 °F 23.4 °F 29.92 in SW 6.0 mph 20.0 mph 33% 0.00 in CLR
03:15 51.7 °F 23.4 °F 29.92 in SW 9.0 mph 17.0 mph 33% 0.00 in CLR
03:30 51.5 °F 23.3 °F 29.92 in WSW 3.0 mph 20.0 mph 33% 0.00 in CLR
03:45 50.8 °F 23.4 °F 29.92 in SW 7.0 mph 13.0 mph 34% 0.00 in CLR
04:00 50.6 °F 23.2 °F 29.93 in SW 6.0 mph 13.0 mph 34% 0.00 in CLR
04:15 50.5 °F 23.9 °F 29.93 in SW 5.0 mph 23.0 mph 35% 0.00 in CLR
04:30 50.3 °F 23.0 °F 29.93 in SW 8.0 mph 17.0 mph 34% 0.00 in CLR
04:45 50.8 °F 23.4 °F 29.94 in WSW 6.0 mph 21.0 mph 34% 0.00 in CLR
05:00 50.3 °F 23.7 °F 29.93 in SW 6.0 mph 16.0 mph 35% 0.00 in CLR
05:15 50.4 °F 23.1 °F 29.94 in WSW 7.0 mph 20.0 mph 34% 0.00 in CLR
05:30 49.9 °F 23.3 °F 29.94 in SW 6.0 mph 15.0 mph 35% 0.00 in CLR
05:45 49.7 °F 23.1 °F 29.95 in SW 8.0 mph 18.0 mph 35% 0.00 in CLR
06:00 49.9 °F 22.6 °F 29.95 in SW 7.0 mph 20.0 mph 34% 0.00 in CLR
06:15 49.4 °F 22.9 °F 29.95 in SW 2.0 mph 14.0 mph 35% 0.00 in CLR
06:30 49.2 °F 22.0 °F 29.95 in WSW 5.0 mph 20.0 mph 34% 0.00 in CLR
06:45 49.5 °F 21.5 °F 29.96 in SW 6.0 mph 15.0 mph 33% 0.00 in CLR
07:00 49.3 °F 21.4 °F 29.96 in SW 9.0 mph 17.0 mph 33% 0.00 in CLR
07:15 49.5 °F 21.6 °F 29.96 in WSW 5.0 mph 16.0 mph 33% 0.00 in CLR
07:30 49.5 °F 21.5 °F 29.96 in WSW 6.0 mph 14.0 mph 33% 0.00 in CLR
07:45 49.8 °F 21.8 °F 29.97 in WSW 5.0 mph 13.0 mph 33% 0.00 in CLR
08:00 50.3 °F 21.5 °F 29.97 in SW 7.0 mph 27.0 mph 32% 0.00 in CLR
08:15 50.8 °F 21.2 °F 29.98 in SW 3.0 mph 20.0 mph 31% 0.00 in CLR
08:30 51.2 °F 20.0 °F 29.98 in SSW 7.0 mph 22.0 mph 29% 0.00 in CLR
08:45 51.4 °F 19.3 °F 29.98 in West 6.0 mph 26.0 mph 28% 0.00 in CLR
09:00 51.6 °F 18.7 °F 29.98 in SW 10.0 mph 22.0 mph 27% 0.00 in CLR
09:15 51.9 °F 18.9 °F 29.98 in WSW 7.0 mph 21.0 mph 27% 0.00 in CLR
09:30 52.3 °F 18.4 °F 29.98 in WSW 9.0 mph 20.0 mph 26% 0.00 in CLR
09:45 52.8 °F 18.8 °F 29.97 in SW 7.0 mph 17.0 mph 26% 0.00 in CLR
10:00 52.7 °F 16.9 °F 29.97 in WSW 7.0 mph 21.0 mph 24% 0.00 in CLR
10:15 52.9 °F 16.1 °F 29.99 in WSW 6.0 mph 19.0 mph 23% 0.00 in CLR
10:30 53.1 °F 16.2 °F 29.98 in WSW 10.0 mph 21.0 mph 23% 0.00 in CLR
10:45 53.9 °F 17.8 °F 29.97 in SW 3.0 mph 18.0 mph 24% 0.00 in CLR
11:00 54.2 °F 18.1 °F 29.97 in WNW 3.0 mph 16.0 mph 24% 0.00 in CLR
11:15 54.4 °F 19.3 °F 29.98 in NNW 3.0 mph 12.0 mph 25% 0.00 in FEW
11:30 54.5 °F 19.4 °F 29.98 in West 2.0 mph 14.0 mph 25% 0.00 in FEW
11:45 54.3 °F 19.2 °F 29.97 in ENE 6.0 mph 20.0 mph 25% 0.00 in FEW
12:00 54.6 °F 19.4 °F 29.97 in West 5.0 mph 13.0 mph 25% 0.00 in FEW
12:15 54.7 °F 20.5 °F 29.96 in WNW 5.0 mph 12.0 mph 26% 0.00 in FEW
12:30 55.1 °F 19.9 °F 29.95 in NW 5.0 mph 15.0 mph 25% 0.00 in FEW
12:45 55.1 °F 19.9 °F 29.95 in WNW 5.0 mph 15.0 mph 25% 0.00 in FEW
13:00 55.5 °F 21.1 °F 29.94 in NE 5.0 mph 12.0 mph 26% 0.00 in FEW
13:15 56.1 °F 22.6 °F 29.94 in NNE 3.0 mph 14.0 mph 27% 0.00 in FEW
13:30 56.0 °F 22.4 °F 29.94 in SW 1.0 mph 15.0 mph 27% 0.00 in FEW
13:45 56.1 °F 21.6 °F 29.94 in NNW 6.0 mph 10.0 mph 26% 0.00 in FEW
14:00 56.4 °F 22.8 °F 29.93 in West 5.0 mph 15.0 mph 27% 0.00 in FEW
14:15 55.7 °F 21.3 °F 29.93 in WNW 1.0 mph 13.0 mph 26% 0.00 in SCT
14:30 55.3 °F 22.7 °F 29.93 in ENE 3.0 mph 10.0 mph 28% 0.00 in SCT
14:45 55.8 °F 22.3 °F 29.94 in West 3.0 mph 12.0 mph 27% 0.00 in SCT
15:00 56.1 °F 22.5 °F 29.93 in NNW 6.0 mph 14.0 mph 27% 0.00 in SCT
15:15 56.2 °F 22.6 °F 29.93 in NNE 2.0 mph 15.0 mph 27% 0.00 in SCT
15:30 56.3 °F 24.4 °F 29.94 in NW 1.0 mph 10.0 mph 29% 0.00 in SCT
15:45 56.3 °F 24.4 °F 29.93 in NNE 1.0 mph 12.0 mph 29% 0.00 in SCT
16:00 56.3 °F 25.2 °F 29.94 in West 3.0 mph 10.0 mph 30% 0.00 in SCT
16:15 55.8 °F 25.6 °F 29.93 in NW 1.0 mph 9.0 mph 31% 0.00 in SCT
16:30 55.0 °F 26.4 °F 29.94 in NNW 3.0 mph 12.0 mph 33% 0.00 in SCT
16:45 54.2 °F 25.6 °F 29.94 in NNW 3.0 mph 13.0 mph 33% 0.00 in SCT
17:00 53.1 °F 25.4 °F 29.94 in NNW 5.0 mph 12.0 mph 34% 0.00 in SCT
17:15 52.3 °F 24.7 °F 29.95 in NNW 5.0 mph 12.0 mph 34% 0.00 in FEW
17:30 51.7 °F 24.9 °F 29.96 in North 2.0 mph 16.0 mph 35% 0.00 in FEW
17:45 51.2 °F 24.5 °F 29.97 in NNW 1.0 mph 12.0 mph 35% 0.00 in FEW
18:00 50.8 °F 24.8 °F 29.97 in WNW 2.0 mph 7.0 mph 36% 0.00 in FEW
18:15 50.6 °F 24.6 °F 29.98 in ENE 2.0 mph 12.0 mph 36% 0.00 in SCT
18:30 50.4 °F 24.4 °F 29.98 in NW 3.0 mph 10.0 mph 36% 0.00 in SCT
18:45 50.1 °F 23.5 °F 29.99 in NNE 3.0 mph 7.0 mph 35% 0.00 in SCT
19:00 49.9 °F 24.0 °F 29.99 in North 1.0 mph 8.0 mph 36% 0.00 in SCT
19:15 49.6 °F 23.0 °F 29.99 in NNW 5.0 mph 12.0 mph 35% 0.00 in BKN
19:30 49.5 °F 22.9 °F 30.00 in NW 2.0 mph 8.0 mph 35% 0.00 in BKN
19:45 49.3 °F 23.4 °F 30.00 in NNE 2.0 mph 9.0 mph 36% 0.00 in BKN
20:00 49.0 °F 23.8 °F 30.00 in NNE 3.0 mph 9.0 mph 37% 0.00 in BKN
20:15 48.7 °F 24.2 °F 30.00 in NNW 2.0 mph 9.0 mph 38% 0.00 in BKN
20:30 48.4 °F 25.2 °F 30.00 in Calm   9.0 mph 40% 0.00 in BKN
20:45 47.9 °F 24.7 °F 30.01 in North 6.0 mph 13.0 mph 40% 0.00 in BKN
21:00 47.5 °F 26.6 °F 30.01 in West 1.0 mph 12.0 mph 44% 0.00 in BKN
21:15 47.2 °F 26.4 °F 30.01 in NNW 2.0 mph 10.0 mph 44% 0.00 in BKN
21:30 46.9 °F 25.5 °F 30.01 in NNW 2.0 mph 7.0 mph 43% 0.00 in BKN
21:45 46.6 °F 24.7 °F 30.02 in WNW 2.0 mph 13.0 mph 42% 0.00 in BKN
22:00 46.5 °F 24.0 °F 30.01 in North 2.0 mph 12.0 mph 41% 0.00 in BKN
22:15 46.3 °F 23.3 °F 30.00 in North 3.0 mph 12.0 mph 40% 0.00 in BKN
22:30 45.9 °F 22.9 °F 29.99 in NNW 2.0 mph 9.0 mph 40% 0.00 in BKN
22:45 45.6 °F 23.8 °F 29.99 in NNW 5.0 mph 13.0 mph 42% 0.00 in BKN
23:00 45.4 °F 22.5 °F 29.99 in North 1.0 mph 14.0 mph 40% 0.00 in BKN
23:15 44.9 °F 23.2 °F 30.00 in NW 2.0 mph 6.0 mph 42% 0.00 in OVC
23:30 44.7 °F 23.5 °F 30.00 in NNW 1.0 mph 5.0 mph 43% 0.00 in OVC
23:45 44.4 °F 24.9 °F 30.00 in NNE 2.0 mph 4.0 mph 46% 0.00 in OVC
TarryTown NY Weather
Compliments of Weather Underground - 1.5 mb